OBJECT XV, 66909

Orbit data source: Space-Track

You're viewing an Uncataloged Satellite

Recently launched and/or uncataloged satellites may have evolving metadata. Metadata may include but not limited to: Owner, Maufacturer, Bus, Motor, and Mission.

OBJECT XV, 66909 is an American satellite in LEO that was delivered to and deployed from the ISS. Unknown objects in Earth's orbit typically refer to objects detected orbiting the Earth but have not yet been identified or cataloged. These objects could be anything from previously untracked satellites, spent rocket stages, debris from satellite collisions, or even natural meteoroids temporarily captured by Earth's gravity.

Loading next visibility...
Identifier
66909, 1998-067XV
Orbit
LEO
Country
Flag of USUS
Related business
None
Manufacturer
Unknown
Mission
Operational spacecraft
Bus & Motor
Unknown
Mass
Unknown
Launch date (UTC)
1998-11-20 (27 years ago)
Launch vehicle
FALCON 9
Launch site
Tyuratam Missile And Space Complex (TTMTR)
Object type
Unknown
Shape & HBR
Unknown
Radar Cross Section
RCS unknown

Expand to show TLE details & history
Last TLE update: 6 hours ago

TLE from 6 hours ago
0 OBJECT XV
1 66909U 98067XV  25351.61959638  .00058177  00000-0  93996-3 0  9990
2 66909  51.6309 118.1253 0003976 257.1224 102.9322 15.52286710  2373
Epoch: 2025-12-17T14:52Z
TLE epoch observation values (Epoch: 2025-12-17T14:52:13.127Z)
Latitude
0.00001°
Longitude
168.58376°
Altitude
411.397 km
Speed
7.665 km/s
True Right ascension
07h 52m 30s
True Declination
0° 00' 00"
Sunlit
Object was in full shadow at epoch
Visualization orbit readout
Latitude
Unknown
Longitude
Unknown
Altitude
Unknown
Speed
Unknown
Apparent Right ascension
Unknown
Apparent Declination
Unknown
Sunlit
N/A
Visualization observer readout
Local Sidereal Time
19:08:41
Azimuth
Unknown
Elevation
Unknown
Doppler factor
Unknown
Orbital elements
Apogee altitude
413.26 km
Perigee altitude
407.862 km
Semi-major axis
6,788.698 km
Eccentricity
0.0004
Inclination
51.6309°
RAAN
118.1253°
Arg. of periapsis
257.1224°
True anomaly
102.9766°
Mean anomaly
102.9322°
Eccentric anomaly
102.9544°
Mean motion
3.88028 °/min
Orbital period
92.78 mins
BSTAR
0.00093996
Loading maneuver chart data...
Computing Atmospheric mass density...

Documentation

Showing up to 5 results
|